FW6919 Weather Reports


Display with metric or nautical units.
time (UTC)temp
F
wind
direction
speed
MPH
gust
MPH
rain 1hr
in
rain 24hr
in
rain mn
in
humidity
%
barometer
mb
20260507195511 73 31 1.0 8.0 0.00 0.00 0.00 51 1017.6
20260507195016 73 136 8.0 8.0 0.00 0.00 0.00 51 1017.7
20260507194514 73 83 7.0 8.0 0.00 0.00 0.00 53 1017.7
20260507194016 72 15 3.0 10.0 0.00 0.00 0.00 52 1017.7
20260507193512 73 55 4.0 10.0 0.00 0.00 0.00 51 1017.8
20260507193013 73 11 2.0 9.0 0.00 0.00 0.00 50 1017.9
20260507192514 73 40 1.0 10.0 0.00 0.00 0.00 51 1018.0
20260507192014 72 76 1.0 11.0 0.00 0.00 0.00 52 1018.2
20260507191514 72 49 3.0 11.0 0.00 0.00 0.00 53 1018.1
20260507191013 72 69 4.0 12.0 0.00 0.00 0.00 54 1018.2
20260507190514 71 81 2.0 12.0 0.00 0.00 0.00 54 1018.3
20260507190111 71 42 5.0 17.0 0.00 0.00 0.00 53 1018.3
20260507185612 71 348 5.0 17.0 0.00 0.00 0.00 53 1018.4
20260507185112 72 24 5.0 17.0 0.00 0.00 0.00 53 1018.4
20260507184609 71 13 1.0 13.0 0.00 0.00 0.00 53 1018.3
20260507184111 71 15 7.0 13.0 0.00 0.00 0.00 53 1018.3
20260507183612 71 61 6.0 10.0 0.00 0.00 0.00 56 1018.5
20260507183113 70 22 5.0 15.0 0.00 0.00 0.00 56 1018.4
20260507182612 69 360 3.0 15.0 0.00 0.00 0.00 55 1018.5
20260507182112 69 11 5.0 15.0 0.00 0.00 0.00 55 1018.5
20260507181612 69 9 8.0 15.0 0.00 0.00 0.00 55 1018.7
20260507181113 69 13 5.0 15.0 0.00 0.00 0.00 54 1018.7
20260507180612 69 13 2.0 15.0 0.00 0.00 0.00 56 1018.7
20260507180116 69 10 7.0 15.0 0.00 0.00 0.00 56 1018.9
20260507175610 69 18 9.0 15.0 0.00 0.00 0.00 56 1018.8
20260507175112 69 15 4.0 13.0 0.00 0.00 0.00 55 1018.9
20260507174610 68 15 5.0 13.0 0.00 0.00 0.00 55 1019.1
20260507174114 68 9 4.0 13.0 0.00 0.00 0.00 56 1019.1
20260507173615 68 58 4.0 13.0 0.00 0.00 0.00 56 1019.2
20260507173110 68 13 3.0 13.0 0.00 0.00 0.00 54 1019.4
20260507172624 68 10 7.0 11.0 0.00 0.00 0.00 57 1019.7
20260507172124 68 13 3.0 11.0 0.00 0.00 0.00 57 1019.7
20260507171623 67 5 6.0 11.0 0.00 0.00 0.00 57 1019.7
20260507171125 67 9 7.0 10.0 0.00 0.00 0.00 57 1020.2
20260507170624 67 15 3.0 11.0 0.00 0.00 0.00 56 1020.4
20260507170124 66 15 5.0 11.0 0.00 0.00 0.00 57 1020.4
20260507165623 66 13 4.0 12.0 0.00 0.00 0.00 59 1020.6
20260507165123 66 5 5.0 12.0 0.00 0.00 0.00 59 1020.7
20260507164624 66 17 7.0 10.0 0.00 0.00 0.00 57 1020.7
20260507164124 66 12 5.0 10.0 0.00 0.00 0.00 59 1020.7
20260507163623 65 16 2.0 10.0 0.00 0.00 0.00 61 1020.7
20260507163123 65 12 5.0 10.0 0.00 0.00 0.00 61 1020.7
20260507162623 65 19 3.0 11.0 0.00 0.00 0.00 62 1020.7
20260507162121 65 11 5.0 11.0 0.00 0.00 0.00 61 1020.7
20260507161625 65 30 5.0 11.0 0.00 0.00 0.00 62 1020.7
20260507161122 65 80 5.0 10.0 0.00 0.00 0.00 61 1020.7
20260507160622 65 14 5.0 12.0 0.00 0.00 0.00 63 1020.7
20260507160121 65 45 4.0 12.0 0.00 0.00 0.00 63 1020.8
20260507155622 64 49 10.0 9.0 0.00 0.00 0.00 62 1020.7
20260507155121 65 34 6.0 9.0 0.00 0.00 0.00 64 1020.6
20260507154623 65 59 2.0 10.0 0.00 0.00 0.00 64 1020.7
20260507154121 64 338 3.0 10.0 0.00 0.00 0.00 66 1020.9
20260507153621 64 5 4.0 9.0 0.00 0.00 0.00 65 1020.9
20260507153121 64 57 5.0 9.0 0.00 0.00 0.00 64 1020.9
20260507152622 64 51 3.0 6.0 0.00 0.00 0.00 66 1020.8
20260507152119 64 360 2.0 10.0 0.00 0.00 0.00 66 1021.0
20260507151618 63 42 3.0 10.0 0.00 0.00 0.00 66 1021.0
20260507151120 63 339 4.0 9.0 0.00 0.00 0.00 68 1021.0
20260507150619 63 341 4.0 9.0 0.00 0.00 0.00 67 1021.1
20260507150119 63 60 5.0 10.0 0.00 0.00 0.00 69 1021.1
20260507145618 62 44 4.0 10.0 0.00 0.00 0.00 68 1021.2
20260507145119 62 50 2.0 10.0 0.00 0.00 0.00 69 1021.2
20260507144622 62 57 3.0 10.0 0.00 0.00 0.00 70 1021.2
20260507144119 62 22 1.0 10.0 0.00 0.00 0.00 72 1021.1
20260507143620 61 17 4.0 7.0 0.00 0.00 0.00 72 1021.3
20260507143118 61 13 4.0 8.0 0.00 0.00 0.00 74 1021.3
20260507142620 60 13 3.0 9.0 0.00 0.00 0.00 74 1021.3
20260507142118 60 16 5.0 9.0 0.00 0.00 0.00 74 1021.4
20260507141619 60 360 2.0 6.0 0.00 0.00 0.00 76 1021.4
20260507141116 60 71 2.0 7.0 0.00 0.00 0.00 77 1021.5
20260507140616 59 60 3.0 7.0 0.00 0.00 0.00 78 1021.4
20260507140117 59 360 4.0 6.0 0.00 0.00 0.00 78 1021.4
20260507135618 58 9 2.0 5.0 0.00 0.00 0.00 79 1021.5
20260507135116 58 42 3.0 5.0 0.00 0.00 0.00 79 1021.5
20260507134616 58 41 4.0 5.0 0.00 0.00 0.00 79 1021.6
20260507134116 58 321 4.0 4.0 0.00 0.00 0.00 78 1021.7
20260507133617 58 5 2.0 6.0 0.00 0.00 0.00 79 1021.6
20260507133115 57 5 3.0 6.0 0.00 0.00 0.00 80 1021.7
20260507132615 57 9 5.0 5.0 0.00 0.00 0.00 81 1021.7
20260507132115 57 352 3.0 5.0 0.00 0.00 0.00 82 1021.7
20260507131616 56 360 2.0 5.0 0.00 0.00 0.00 83 1021.6
20260507131114 55 40 2.0 5.0 0.00 0.00 0.00 83 1021.7
20260507130616 55 40 3.0 5.0 0.00 0.00 0.00 83 1021.6
20260507130117 55 36 3.0 5.0 0.00 0.00 0.00 84 1021.6
20260507125618 54 41 3.0 5.0 0.00 0.00 0.00 84 1021.5
20260507125116 54 42 3.0 5.0 0.00 0.00 0.00 84 1021.4
20260507124616 54 46 4.0 5.0 0.00 0.00 0.00 85 1021.4
20260507124115 54 44 1.0 5.0 0.00 0.00 0.00 85 1021.4
20260507123615 54 0 0.0 4.0 0.00 0.00 0.00 86 1021.2
20260507123113 53 0 0.0 4.0 0.00 0.00 0.00 86 1021.2
20260507122614 53 40 1.0 4.0 0.00 0.00 0.00 87 1021.2
20260507122113 53 0 0.0 3.0 0.00 0.00 0.00 87 1021.2
20260507121613 52 0 0.0 0.0 0.00 0.00 0.00 87 1021.3
20260507121114 52 0 0.0 1.0 0.00 0.00 0.00 87 1021.2
20260507120612 52 0 0.0 2.0 0.00 0.00 0.00 87 1021.1
20260507120114 52 319 1.0 2.0 0.00 0.00 0.00 87 1021.0
20260507115612 52 0 0.0 2.0 0.00 0.00 0.00 87 1020.9
20260507115113 52 0 0.0 2.0 0.00 0.00 0.00 87 1020.9
20260507114611 52 320 1.0 1.0 0.00 0.00 0.00 87 1020.8
20260507114113 52 0 0.0 3.0 0.00 0.00 0.00 87 1020.7
20260507113612 52 0 0.0 5.0 0.00 0.00 0.00 87 1020.6
20260507113111 52 0 0.0 6.0 0.00 0.00 0.00 87 1020.7
20260507112613 52 320 2.0 6.0 0.00 0.00 0.00 87 1020.6
20260507112113 52 326 6.0 6.0 0.00 0.00 0.00 87 1020.9
20260507111613 52 338 5.0 8.0 0.00 0.00 0.00 87 1020.9
20260507111113 53 344 2.0 8.0 0.00 0.00 0.00 87 1020.7
20260507110610 53 316 1.0 7.0 0.00 0.00 0.00 87 1020.9
20260507110112 53 312 2.0 7.0 0.00 0.00 0.00 87 1020.9
20260507105612 53 303 4.0 4.0 0.00 0.00 0.00 86 1020.9
20260507105110 53 314 1.0 4.0 0.00 0.00 0.00 86 1020.7
20260507104610 53 314 3.0 4.0 0.00 0.00 0.00 86 1020.6
20260507104112 53 313 1.0 5.0 0.00 0.00 0.00 86 1020.4
20260507103611 53 311 2.0 5.0 0.00 0.00 0.00 86 1020.4
20260507103114 53 309 2.0 5.0 0.00 0.00 0.00 86 1020.3
20260507102613 53 352 3.0 4.0 0.00 0.00 0.00 86 1020.1
20260507102111 53 360 2.0 3.0 0.00 0.00 0.00 86 1020.0
20260507101614 53 360 2.0 3.0 0.00 0.00 0.00 86 1020.0
20260507101112 53 360 2.0 4.0 0.00 0.00 0.00 86 1020.0
20260507100613 53 9 1.0 4.0 0.00 0.00 0.00 86 1019.8
20260507100112 53 0 0.0 4.0 0.00 0.00 0.00 86 1019.6
20260507095612 53 5 2.0 4.0 0.00 0.00 0.00 86 1019.7
20260507095110 53 5 2.0 3.0 0.00 0.00 0.00 86 1019.6
20260507094615 53 11 1.0 3.0 0.00 0.00 0.00 86 1019.6
20260507094110 54 11 2.0 3.0 0.00 0.00 0.00 86 1019.4
20260507093615 54 9 3.0 3.0 0.00 0.00 0.00 85 1019.2
20260507093112 54 9 1.0 3.0 0.00 0.00 0.00 86 1019.1
20260507092612 54 9 3.0 4.0 0.00 0.00 0.00 85 1019.1
20260507092114 54 9 2.0 4.0 0.00 0.00 0.00 85 1019.0
20260507091609 54 5 3.0 5.0 0.00 0.00 0.00 85 1019.0
20260507091113 54 5 3.0 5.0 0.00 0.00 0.00 85 1018.9
20260507090611 54 9 1.0 5.0 0.00 0.00 0.00 85 1018.9
20260507090113 54 19 3.0 5.0 0.00 0.00 0.00 85 1018.8
20260507085612 54 11 3.0 5.0 0.00 0.00 0.00 85 1018.7
20260507085113 54 15 3.0 5.0 0.00 0.00 0.00 85 1018.8
20260507084611 54 19 3.0 5.0 0.00 0.00 0.00 84 1018.9
20260507084112 54 17 4.0 5.0 0.00 0.00 0.00 84 1019.0
20260507083613 54 26 3.0 5.0 0.00 0.00 0.00 84 1019.1
20260507083112 55 26 3.0 5.0 0.00 0.00 0.00 84 1019.1
20260507082611 55 32 1.0 5.0 0.00 0.00 0.00 83 1019.0
20260507082114 55 27 3.0 5.0 0.00 0.00 0.00 83 1018.9
20260507081614 55 33 3.0 5.0 0.00 0.00 0.00 83 1018.9
20260507081113 55 5 1.0 5.0 0.00 0.00 0.00 83 1019.1
20260507080611 55 5 1.0 7.0 0.00 0.00 0.00 83 1019.1
20260507080111 55 360 2.0 7.0 0.00 0.00 0.00 82 1018.8
20260507075612 55 25 4.0 8.0 0.00 0.00 0.00 82 1018.8
20260507075112 55 40 2.0 8.0 0.00 0.00 0.00 82 1018.9
20260507074612 55 40 3.0 8.0 0.00 0.00 0.00 82 1018.8
20260507074112 55 337 3.0 9.0 0.00 0.00 0.00 82 1018.8
20260507073613 55 27 5.0 9.0 0.00 0.00 0.00 82 1018.7
20260507073111 56 5 6.0 9.0 0.00 0.00 0.00 82 1018.6
20260507072611 56 9 4.0 7.0 0.00 0.00 0.00 82 1018.7
20260507072112 56 11 3.0 8.0 0.00 0.00 0.00 82 1018.5
20260507071612 56 19 3.0 8.0 0.00 0.00 0.00 82 1018.5
20260507071115 56 24 3.0 7.0 0.00 0.00 0.00 82 1018.5
20260507070612 56 352 2.0 7.0 0.00 0.00 0.00 82 1018.5
20260507070111 56 11 3.0 7.0 0.00 0.00 0.00 82 1018.4
20260507065609 56 13 4.0 7.0 0.00 0.00 0.00 82 1018.4
20260507065112 57 360 2.0 6.0 0.00 0.00 0.00 82 1018.5
20260507064611 57 19 5.0 6.0 0.00 0.00 0.00 81 1018.5
20260507064117 57 25 3.0 6.0 0.00 0.00 0.00 81 1018.4
20260507063612 57 32 5.0 6.0 0.00 0.00 0.00 80 1018.4
20260507063111 57 38 3.0 5.0 0.00 0.00 0.00 80 1018.4
20260507062610 57 46 5.0 5.0 0.00 0.00 0.00 80 1018.3
20260507062113 57 24 3.0 5.0 0.00 0.00 0.00 80 1018.3
20260507061611 57 47 3.0 7.0 0.00 0.00 0.00 80 1018.3
20260507061112 57 26 2.0 8.0 0.00 0.00 0.00 80 1018.2
20260507060610 57 60 6.0 8.0 0.00 0.00 0.00 79 1018.2
20260507060114 57 59 3.0 9.0 0.00 0.00 0.00 79 1018.2
20260507055613 57 61 3.0 9.0 0.00 0.00 0.00 79 1018.2
20260507055110 57 40 3.0 5.0 0.00 0.00 0.00 79 1018.2
20260507054612 57 51 3.0 5.0 0.00 0.00 0.00 79 1018.3
20260507054112 58 51 4.0 5.0 0.00 0.00 0.00 78 1018.3
20260507053612 58 47 2.0 5.0 0.00 0.00 0.00 78 1018.2
20260507053112 58 55 3.0 8.0 0.00 0.00 0.00 78 1018.1
20260507052613 58 44 4.0 10.0 0.00 0.00 0.00 78 1018.1
20260507052112 58 63 4.0 10.0 0.00 0.00 0.00 77 1018.0
20260507051615 58 57 6.0 10.0 0.00 0.00 0.00 77 1018.0
20260507051115 58 92 6.0 9.0 0.00 0.00 0.00 77 1018.0
20260507050611 58 41 5.0 9.0 0.00 0.00 0.00 77 1018.2
20260507050112 58 57 4.0 9.0 0.00 0.00 0.00 76 1018.1
20260507045612 59 59 5.0 8.0 0.00 0.00 0.17 76 1018.1
20260507045128 59 52 4.0 11.0 0.00 0.00 0.17 76 1018.1
20260507044628 59 62 3.0 12.0 0.00 0.00 0.17 75 1018.2
20260507044128 59 74 1.0 12.0 0.00 0.00 0.17 75 1018.1
20260507043628 59 61 9.0 12.0 0.00 0.00 0.17 75 1018.2
20260507043127 59 36 7.0 10.0 0.00 0.00 0.17 75 1018.2
20260507042628 59 75 8.0 12.0 0.00 0.00 0.17 75 1018.1
20260507042128 59 67 5.0 12.0 0.00 0.00 0.17 74 1018.3
20260507041629 59 85 7.0 13.0 0.00 0.00 0.17 74 1018.3
20260507041128 60 32 6.0 13.0 0.00 0.00 0.17 74 1018.4
20260507040627 60 33 5.0 12.0 0.00 0.00 0.17 74 1018.4
20260507040127 60 73 5.0 15.0 0.00 0.00 0.17 74 1018.4
20260507035629 60 56 5.0 15.0 0.00 0.00 0.17 74 1018.5
20260507035129 60 28 5.0 13.0 0.00 0.00 0.17 74 1018.4
20260507034630 60 16 8.0 14.0 0.00 0.00 0.17 74 1018.3
20260507034127 60 66 6.0 14.0 0.00 0.00 0.17 74 1018.3
20260507033627 60 26 8.0 14.0 0.00 0.00 0.17 74 1018.3
20260507033126 60 61 5.0 14.0 0.00 0.00 0.17 74 1018.4
20260507032625 60 49 4.0 12.0 0.00 0.00 0.17 74 1018.4
20260507032125 60 57 10.0 11.0 0.00 0.00 0.17 74 1018.4
20260507031626 60 51 7.0 15.0 0.00 0.00 0.17 74 1018.2
20260507031126 60 45 6.0 15.0 0.00 0.00 0.17 74 1018.3
20260507030626 61 40 6.0 15.0 0.00 0.00 0.17 74 1018.3
20260507030125 61 37 6.0 15.0 0.00 0.00 0.17 74 1018.3
20260507025625 61 12 8.0 14.0 0.00 0.00 0.17 74 1018.3
20260507025126 61 9 4.0 14.0 0.00 0.00 0.17 73 1018.0
20260507024624 62 11 7.0 12.0 0.00 0.00 0.17 75 1017.8
20260507024126 62 9 8.0 13.0 0.00 0.00 0.17 74 1017.7
20260507023625 62 37 5.0 15.0 0.00 0.00 0.17 74 1017.6
20260507023125 62 10 5.0 15.0 0.00 0.00 0.17 74 1017.5
20260507022624 62 11 11.0 13.0 0.00 0.00 0.17 74 1017.4
20260507022125 62 14 9.0 13.0 0.00 0.00 0.17 74 1017.4
20260507021625 62 12 10.0 15.0 0.00 0.00 0.17 74 1017.3
20260507021124 62 9 4.0 15.0 0.00 0.00 0.17 74 1017.1
20260507020623 62 11 7.0 15.0 0.00 0.00 0.17 74 1017.1
20260507020125 62 11 7.0 14.0 0.00 0.00 0.17 74 1017.1
20260507015624 62 12 12.0 14.0 0.00 0.00 0.17 74 1017.0
20260507015123 62 10 5.0 13.0 0.00 0.00 0.17 74 1016.9
20260507014625 62 10 9.0 12.0 0.00 0.00 0.17 74 1016.8
20260507014123 62 13 7.0 10.0 0.00 0.00 0.17 74 1016.6
20260507013623 62 12 4.0 10.0 0.00 0.00 0.17 74 1016.5
20260507013122 62 11 4.0 11.0 0.00 0.00 0.17 74 1016.3
20260507012622 62 5 3.0 11.0 0.00 0.00 0.17 74 1016.2
20260507012122 62 10 3.0 11.0 0.00 0.00 0.17 74 1016.1
20260507011623 63 11 9.0 14.0 0.00 0.00 0.17 73 1016.0
20260507011121 63 12 5.0 14.0 0.00 0.00 0.17 73 1015.9
20260507010622 63 13 5.0 14.0 0.00 0.00 0.17 73 1015.9
20260507010125 63 13 8.0 11.0 0.00 0.00 0.17 74 1015.8
20260507005621 63 9 7.0 11.0 0.00 0.00 0.17 74 1015.6
20260507005122 63 11 5.0 12.0 0.00 0.00 0.17 74 1015.7
20260507004620 63 11 8.0 13.0 0.00 0.00 0.17 74 1015.7
20260507004120 63 9 5.0 13.0 0.00 0.00 0.17 73 1015.7
20260507003620 63 11 10.0 14.0 0.00 0.00 0.17 73 1015.7
20260507003121 63 10 4.0 14.0 0.00 0.00 0.17 73 1015.5
20260507002621 63 10 8.0 12.0 0.00 0.00 0.17 73 1015.5
20260507002122 64 10 4.0 12.0 0.00 0.00 0.17 73 1015.6
20260507001620 64 9 7.0 13.0 0.00 0.00 0.17 72 1015.5
20260507001120 64 10 8.0 14.0 0.00 0.00 0.17 73 1015.5
20260507000620 64 10 8.0 14.0 0.00 0.00 0.17 73 1015.3
20260507000120 64 9 14.0 15.0 0.00 0.00 0.17 72 1015.2
20260506235618 65 11 3.0 15.0 0.00 0.00 0.17 72 1015.2
20260506235120 65 9 5.0 14.0 0.00 0.00 0.17 71 1015.2
20260506234619 65 9 5.0 13.0 0.00 0.00 0.17 71 1015.0
20260506234118 65 31 6.0 12.0 0.00 0.00 0.17 72 1015.0
20260506233618 65 5 9.0 12.0 0.00 0.00 0.17 71 1015.0
20260506233119 65 12 11.0 11.0 0.00 0.00 0.17 71 1014.9
20260506232620 65 10 3.0 14.0 0.00 0.00 0.17 71 1014.9
20260506232119 65 30 2.0 15.0 0.00 0.00 0.17 71 1014.8
20260506231618 65 9 4.0 15.0 0.00 0.00 0.17 70 1014.7
20260506231118 66 9 8.0 15.0 0.00 0.00 0.17 70 1014.6
20260506230616 66 11 4.0 12.0 0.00 0.00 0.17 70 1014.6
20260506230120 66 15 11.0 12.0 0.00 0.00 0.17 69 1014.6
20260506225617 66 360 3.0 12.0 0.00 0.00 0.17 70 1014.8
20260506225118 65 12 7.0 10.0 0.00 0.00 0.17 71 1014.9
20260506224618 65 14 3.0 12.0 0.00 0.00 0.17 70 1014.9
20260506224118 65 9 7.0 12.0 0.00 0.00 0.17 71 1014.7
20260506223616 66 15 5.0 11.0 0.00 0.00 0.17 70 1014.6
20260506223120 66 22 5.0 13.0 0.00 0.00 0.17 71 1014.6
20260506222617 65 12 5.0 13.0 0.00 0.00 0.17 72 1014.5
20260506222115 65 10 8.0 13.0 0.00 0.00 0.17 71 1014.4
20260506221615 64 16 5.0 15.0 0.00 0.00 0.17 73 1014.6
20260506221116 64 11 5.0 15.0 0.00 0.00 0.17 72 1014.4
20260506220617 64 19 5.0 11.0 0.00 0.00 0.17 72 1014.5
20260506220115 64 9 5.0 11.0 0.00 0.00 0.17 71 1014.5
20260506215617 64 21 8.0 9.0 0.00 0.00 0.17 73 1014.4
20260506215115 63 14 3.0 10.0 0.00 0.00 0.17 73 1014.9
20260506214614 63 12 4.0 10.0 0.00 0.00 0.17 73 1015.0
20260506214114 63 5 4.0 10.0 0.00 0.00 0.17 74 1015.0
20260506213615 62 11 3.0 11.0 0.00 0.00 0.17 75 1014.9
20260506213114 62 13 7.0 12.0 0.00 0.00 0.17 74 1014.9
20260506212614 61 13 10.0 12.0 0.00 0.00 0.17 74 1014.7
20260506212114 61 11 7.0 10.0 0.00 0.00 0.17 74 1014.9
20260506211614 62 13 7.0 9.0 0.00 0.00 0.17 75 1015.0
20260506211114 61 10 4.0 9.0 0.00 0.00 0.17 75 1015.0
20260506210615 61 11 3.0 9.0 0.00 0.00 0.17 75 1015.1
20260506210113 61 11 5.0 9.0 0.00 0.00 0.17 75 1015.1
20260506205615 61 11 7.0 12.0 0.00 0.00 0.17 74 1015.2
20260506205115 61 13 4.0 12.0 0.00 0.00 0.17 75 1015.0
20260506204614 61 11 9.0 12.0 0.00 0.00 0.17 74 1014.9
20260506204115 61 13 5.0 10.0 0.00 0.00 0.17 74 1015.1
20260506203614 61 11 5.0 10.0 0.00 0.00 0.17 75 1015.1
20260506203112 61 5 3.0 10.0 0.00 0.00 0.17 74 1014.9
20260506202613 61 11 7.0 10.0 0.00 0.00 0.17 74 1015.5
20260506202113 61 9 9.0 10.0 0.00 0.00 0.17 74 1015.3
20260506201613 60 12 7.0 10.0 0.00 0.00 0.17 75 1015.5
20260506201113 61 10 7.0 9.0 0.00 0.00 0.17 74 1015.6
20260506200612 61 12 5.0 9.0 0.00 0.00 0.17 74 1015.4
20260506200112 60 33 4.0 10.0 0.00 0.00 0.17 74 1015.6